Regional Weather Roundup
Issued by NWS

Home | Current Version | Previous Version | Graphics & Text | Print | Product List | Glossary On
Versions: 1 2 3 4 5 6 7 8 9 10 11 12 13 14 15 16 17 18 19 20 21 22 23 24 25 26 27 28 29 30 31 32 33 34 35 36 37 38 39 40 41 42 43 44 45 46 47 48 49 50
000
ASUS45 KABQ 221301
RWRNM
NEW MEXICO REGIONAL WEATHER ROUNDUP
NATIONAL WEATHER SERVICE ALBUQUERQUE NM
700 AM MDT MON MAY 22 2017

NOTE: "FAIR" MEANS FEW OR NO CLOUDS BELOW 12,000 FEET AGL WITH NO
       SIGNIFICANT WEATHER OR OBSTRUCTIONS TO VISION.

      THIS PRODUCT IS RELEASED AS TWO VERSIONS.  ONE VERSION NEAR
      THE TOP OF THE HOUR CONTAINING PRELIMINARY DATA FROM ALBUQUERQUE
      AND OTHER STATIONS.  A FINAL VERSION WITH ADDITIONAL DATA IS
      ISSUED ABOUT 10 MINUTES AFTER THE HOUR.

NMZ501-503-504-510>518-221400-
NORTHWEST PLATEAU/NORTHCENTRAL MOUNTAINS

CITY           SKY/WX    TMP DP  RH WIND       PRES   REMARKS
FARMINGTON     FAIR      46  35  65 SW10      30.16R
LOS ALAMOS     FAIR      53  28  37 CALM      30.21R
SANTA FE       FAIR      50  25  37 N3        30.16R
TAOS           FAIR      39  21  48 N3        30.22R
ANGEL FIRE     FAIR      32  30  93 CALM      30.24S

$$
NMZ402-403-502-505>509-221400-
WESTCENTRAL MOUNTAINS/SOUTHWEST MOUNTAINS

CITY           SKY/WX    TMP DP  RH WIND       PRES   REMARKS
GALLUP         FAIR      42  31  64 CALM      30.23S
GRANTS         FAIR      41  25  52 NW5       30.24S
SILVER CITY    FAIR      55  17  22 N12       30.11S

$$
NMZ407-409-411-412-221400-
SOUTHERN DESERTS

CITY           SKY/WX    TMP DP  RH WIND       PRES   REMARKS
DEMING         FAIR      54  33  45 CALM      30.06R
LAS CRUCES     FAIR      58  45  60 CALM      30.07R
HOLLOMAN AFB   FAIR      62  49  62 CALM      30.09R
ALAMOGORDO     FAIR      63  46  55 CALM      30.07R
T OR C         FAIR      60  21  22 NW8       30.09R

$$
NMZ519>523-221400-
CENTRAL VALLEYS/CENTRAL HIGHLANDS

CITY           SKY/WX    TMP DP  RH WIND       PRES   REMARKS
ALBUQUERQUE    FAIR      58  26  29 N9        30.14R
DOUBLE EAGLE   MOSUNNY   54  30  40 NW10      30.16R
MORIARTY ARPT  FAIR      45  42  89 CALM      30.19R
CLINES CORNERS PTSUNNY   48  46  93 E7        30.21R
BELEN          FAIR      55  22  28 N3        30.15R
SOCORRO        FAIR      53  22  29 N5        30.13R

$$
NMZ524>526-539-540-221400-
SOUTHCENTRAL MOUNTAINS

CITY           SKY/WX    TMP DP  RH WIND       PRES   REMARKS
RUIDOSO        NOT AVBL

$$
NMZ527>531-221400-
NORTHEAST HIGHLANDS/NORTHEAST PLAINS

CITY           SKY/WX    TMP DP  RH WIND       PRES   REMARKS
LAS VEGAS      CLOUDY    48  46  93 S6        30.19R
RATON          CLOUDY    47  43  86 N6        30.18R
CLAYTON        CLOUDY    47  46  97 NW5       30.16R

$$
NMZ532>537-221400-
EASTCENTRAL PLAINS

CITY           SKY/WX    TMP DP  RH WIND       PRES   REMARKS
SANTA ROSA     CLOUDY    55  51  87 CALM      30.13R
TUCUMCARI      CLOUDY    57  53  86 E3        30.09S
CANNON AFB     FAIR      54  54 100 NE8       30.13S
CLOVIS AIRPORT CLOUDY    54  46  76 NE8       30.13S

$$
NMZ028-029-538-221400-
SOUTHEAST PLAINS

CITY           SKY/WX    TMP DP  RH WIND       PRES   REMARKS
ROSWELL        CLOUDY    61  53  75 S14       30.08R
ARTESIA        CLOUDY    57  57 100 SE9       30.10R FOG
CARLSBAD       CLOUDY    59  59 100 SE7       30.08R FOG
HOBBS          CLOUDY    55  55 100 E7        30.13S


$$




USA.gov is the U.S. government's official web portal to all federal, state and local government web resources and services.